Flag for Colombia Weather past 2 weeks in Cúcuta, Colombia

Now
91 °F

Partly sunny.


Feels Like: 93 °F
Forecast: N/A
Wind: N/A

Location: San Antonio Del Tachira Airport

Current Time: Aug 29, 2014 at 3:45:24 PM

Latest Report: Aug 29, 2014 at 2:00 PM


Visibility: N/A

Pressure: 29.89 "Hg

Humidity: 41%

Dew point: 64 °F

Location of CúcutaLocation

Historic Weather in Cúcuta — Graph

°F

Cúcuta temperature yesterday

Maximum temperature yesterday: 91 °F (at 12:00 PM)
Minimum temperature yesterday: 64 °F (at 6:00 PM)
Average temperature yesterday: 80 °F

Past Weeks' High & Low Weather Summary

 TemperatureHumidityPressure
High99 °F (Aug 22, 1:00 PM)100% (Aug 24, 7:00 AM)30.04 "Hg (Aug 24, 7:00 AM)
Low64 °F (Aug 28, 6:00 PM)27% (Aug 26, 6:00 AM)29.62 "Hg (Aug 15, 7:00 PM)
Average84 °F54%29.91 "Hg
* Reported Aug 14 2:00 PM — Aug 29 2:00 PM, Cúcuta, Weather by CustomWeather, © 2014

Note: Actual official high and low records may vary slightly from our data, if they occured in-between our weather recording intervals... More about our weather records

Advertising

Cúcuta weather history for previous 24 hours

 ConditionsComfort  
Time TempWeatherWind HumidityBarometerVisibility
2:00 PM
Aug 29
91 °FPartly sunny.N/A41%29.89 "HgN/A
1:00 PM91 °FPartly sunny.N/A44%29.89 "HgN/A
12:00 PM90 °FPartly sunny.N/A43%29.98 "HgN/A
10:00 AM88 °FPartly sunny.N/A43%30.01 "HgN/A
9:00 AM86 °FBroken clouds.N/A46%30.01 "HgN/A
8:00 AM82 °FScattered clouds.N/A45%30.01 "HgN/A
7:00 AM81 °FPartly sunny.N/A48%29.98 "HgN/A
6:00 AM82 °FPartly sunny.N/A42%29.95 "HgN/A
5:00 AM82 °FOvercast.N/A42%29.95 "HgN/A
4:00 AM81 °FPassing clouds.N/A48%29.95 "HgN/A
10:00 PM
Aug 28
81 °FPassing clouds.N/A51%29.95 "HgN/A
7:00 PM81 °FPassing clouds.N/A51%29.89 "HgN/A
6:00 PM64 °FPassing clouds.N/A88%29.89 "HgN/A
5:00 PM84 °FPartly sunny.N/A43%29.86 "HgN/A
4:00 PM88 °FPartly sunny.N/A35%29.83 "HgN/A
3:00 PM90 °FPartly sunny.N/A38%29.86 "HgN/A
Weather by CustomWeather, © 2014

See weather overviewHow to use our weather pages